Location: Eschentzwiller
(47.7125°N, 7.3981°E)
Time: 03:37:06
(UTC+00:00)

SKYMED 2 - Pass Details

Date: 27 October 2020
Orbit: 621 x 623 km, 97.9° (Epoch: 01 December)

Event Time Altitude Azimuth Distance (km) Brightness Sun altitude
Rises 17:12:06 0° 19° (NNE) 2,917 6.7 -9.3°
Reaches altitude 10° 17:14:25 10° 26° (NNE) 2,004 5.8 -9.7°
Maximum altitude 17:18:34 42° 98° (E) 892 3.9 -10.4°
Drops below altitude 10° 17:22:40 10° 170° (S) 1,987 6.1 -11.1°
Sets 17:24:56 0° 177° (S) 2,888 7.1 -11.4°
